Regional Weather Roundup
Issued by NWS Upton, NY

Current Version | Previous Version | Text Only | Print | Product List | Glossary Off
Versions: 1 2 3 4 5 6 7 8 9 10 11 12 13 14 15 16 17 18 19 20 21 22 23 24 25 26 27 28 29 30 31 32 33 34 35 36 37 38 39 40
000 ASUS41 KOKX 210605 RWROKX REGIONAL WEATHER ROUNDUP NATIONAL WEATHER SERVICE NEW YORK NY 200 AM EDT TUE OCT 21 2014 NOTE: "FAIR" INDICATES FEW OR NO CLOUDS BELOW 12,000 FEET WITH NO SIGNIFICANT WEATHER AND/OR OBSTRUCTIONS TO VISIBILITY. NYZ071-072-176-178-NJZ106-104-210700- NEW YORK CITY METRO AREA CITY SKY/WX TMP DP RH WIND PRES REMARKS CENTRAL PARK CLOUDY 58 43 57 MISG 29.96F LAGUARDIA APRT CLOUDY 57 44 62 S3 29.94F KENNEDY INTL CLOUDY 56 45 66 SW7 29.95F NEWARK/LIBERTY CLOUDY 53 44 71 CALM 29.94F BRNX BOT. GARD N/A 54 43 66 CALM 29.95S TETERBORO CLOUDY 53 44 71 CALM 29.94F $$ NYZ177-179-078>081-210700- LONG ISLAND NEW YORK CITY SKY/WX TMP DP RH WIND PRES REMARKS FARMINGDALE MOCLDY 52 45 77 CALM 29.95F ISLIP PTCLDY 55 46 71 CALM 29.94F SHIRLEY PTCLDY 58 47 66 CALM 29.96F WESTHAMPTON MOCLDY 58 47 66 SW5 29.98F MONTAUK POINT N/A 61 50 67 S8G17 29.99F $$ NYZ052-065-067-210700- HUDSON VALLEY CITY SKY/WX TMP DP RH WIND PRES REMARKS WHITE PLAINS CLOUDY 49 44 83 CALM 29.94F NEWBURGH MOCLDY 54 43 66 SE6 29.94F MONTGOMERY CLOUDY 45 41 86 N3 29.92F POUGHKEEPSIE CLOUDY 48 42 80 SE3 29.92F ALBANY LGT RAIN 52 40 63 S10 29.92F $$ NJZ001-105-106-008-010-013-015-019>022-104-210700- NEW JERSEY CITY SKY/WX TMP DP RH WIND PRES REMARKS NEWARK/LIBERTY CLOUDY 53 44 71 CALM 29.94F TETERBORO CLOUDY 53 44 71 CALM 29.94F CALDWELL CLOUDY 48 41 76 CALM 29.95F MORRISTOWN CLOUDY 45 41 87 CALM 29.94F SOMERVILLE CLOUDY 45 42 89 CALM 29.91F SUSSEX LGT RAIN 49 44 83 CALM 29.93S ANDOVER N/A 52 43 71 CALM 29.92F TRENTON CLOUDY 50 44 80 CALM 29.92F MILLVILLE CLOUDY 51 47 86 CALM 29.93F ATLANTIC CITY CLOUDY 53 46 77 CALM 29.94F WRIGHTSTOWN CLOUDY 50 45 81 SE2 29.92F TOMS RIVER CLOUDY 45 39 81 CALM 29.95F BELMAR CLOUDY 54 43 66 S6 29.94F $$ PAZ047>061-062-071-210700- EASTERN PENNSYLVANIA CITY SKY/WX TMP DP RH WIND PRES REMARKS PHILADELPHIA CLOUDY 56 46 69 S5 29.93F ALLENTOWN LGT RAIN 52 47 83 CALM 29.92S SCRANTON CLOUDY 54 43 66 S6 29.88F $$ CTZ002-004>006-009-010-012-RIZ004-006-007-MAZ004-011-015-210700- SOUTHERN NEW ENGLAND IN CT CITY SKY/WX TMP DP RH WIND PRES REMARKS BRADLEY INTL CLOUDY 47 41 80 CALM 29.96F HARTFORD MOCLDY 47 44 90 SE8 29.97F DANBURY CLOUDY 45 29 53 CALM 29.96F WTRBRY/OXFORD MOCLDY 52 43 71 S5 29.96F BRIDGEPORT MOCLDY 60 46 59 SW9 29.96F MERIDEN MOCLDY 43 40 89 CALM 29.97F NEW HAVEN PTCLDY 59 46 62 NW3 29.96F CHESTER FAIR 45 43 93 CALM 29.98S GROTON MOCLDY 51 49 92 N5 29.97F WILLIMANTIC MOCLDY 41 38 89 CALM 29.99F IN RI CITY SKY/WX TMP DP RH WIND PRES REMARKS PROVIDENCE MOCLDY 46 41 82 CALM 30.01S BLOCK ISLAND CLOUDY 61 46 59 SW15G23 29.99F WESTERLY MOCLDY 57 51 80 SW8 29.99F IN MA CITY SKY/WX TMP DP RH WIND PRES REMARKS BOSTON MOCLDY 49 44 83 S5 30.01S WORCESTER CLOUDY 46 40 79 SW6 29.98S WESTFIELD CLOUDY 45 41 86 CALM 29.97S PROVINCETOWN MOCLDY 52 45 76 SE5 30.03S NANTUCKET CLOUDY 59 50 72 S7 30.03F $$ ANZ330-335-338-340-345-350-353-355-210700- COASTAL MARINE OBSERVATIONS STATION/POSITION TIME SKY/WX TEMP WIND PRES VSBY WAVE AIR SEA DIR/SP/G HT/PER (UTC) (F) (DEG/KT/KT) (MB) (MI) (FT/S) NY HARB ENTRANCE NOT AVBL 4S FIRE IS 0600 63 N/A 5/ 6 20S FIRE ISLAND 0600 63 63 230/ 14/ 16 1014.3 5/ 6 23SW MTP 0600 N/A 5/ 6 HUDSON CANYON 0600 65 66 210/ 16/ 19 1014.5 5/ 6 EXECUTION ROCKS 0600 59 63 200/ 8/ 8 N/A WESTERN LI SOUND 0600 59 200/ 6/ 10 N/A 1 CENTRAL LI SOUND 0500 61 63 230/ 12/ 16 N/A 2/ 3 EASTERN LI SOUND 0500 62 64 230/ 12/ 16 N/A ROBBINS REEF 0600 58 210/ 5/ 6 1012.7 $$ >>>>>>>>>>>>>>>>>>>>>>>>>>>> KEY <<<<<<<<<<<<<<<<<<<<<<<<<<< > < > SKY/WX - SKY CONDITION/PRESENT WEATHER < > TMP - TEMPERATURE IN FAHRENHEIT < > DP - DEWPOINT IN FAHRENHEIT < > RH - RELATIVE HUMIDITY IN PERCENT < > WIND - DIRECTION AND SPEED IN MPH < > PRES - MEAN SEA LEVEL PRESSURE IN INCHES OF HG < > WCI - WIND CHILL INDEX < > VSB - VISIBILITY IN MILES < > HX - HEAT INDEX < > TC - TEMPERATURE IN CELSIUS < > VRB - VARIABLE WIND DIRECTION < > < >>>>>>>>>>>>>>>>>>>>>>>>>>>> KEY <<<<<<<<<<<<<<<<<<<<<<<<<<<

USA.gov is the U.S. government's official web portal to all federal, state and local government web resources and services.